Powrót do katalogu

H-2A R/B

AktywnyHEO
NORAD 42966·ROCKET BODY·🇯🇵 Japan

Wystrzelony Oct 9, 2017 z Tanegashima Space Center

Loading…

Następne Przeloty (najbliższe 24 godziny)

TLE

ŚwieżeSource: Space-Track

Epoka: Sep 14, 2026, 03:38 UTC

1 42966U 17062B   26257.15180112  .00003930  00000-0  11301-2 0  9997
2 42966  31.4602 268.5528 7142213 219.0357  57.5383  2.45409051 77025

Śledź H-2A R/B w czasie rzeczywistym z AllMySat

Download on the App Store